Regional Weather Roundup
Issued by NWS

Home | Current Version | Previous Version | Text Only | Print | Product List | Glossary On
Versions: 1 2 3 4 5 6 7 8 9 10 11 12 13 14 15 16 17 18 19 20 21 22 23 24 25 26 27
000
ASUS46 KPQR 251510
RWROR

OREGON REGIONAL WEATHER ROUNDUP
NATIONAL WEATHER SERVICE PORTLAND OR
800 AM PDT THU MAY 25 2017

NOTE: "FAIR" INDICATES FEW OR NO CLOUDS BELOW 12,000 FEET WITH
NO SIGNIFICANT WEATHER AND/OR OBSTRUCTIONS TO VISIBILITY.

ORZ001>013-251600-
NORTHWEST OREGON


CITY           SKY/WX    TMP DP  RH WIND       PRES   REMARKS
ASTORIA        CLOUDY    50  46  86 CALM      29.92F
NEWPORT        SUNNY     52  46  82 NE3       29.94S
PORTLAND       CLOUDY    52  44  74 N3        29.92S
VANCOUVER WA   CLOUDY    52  46  80 N3        29.92S
SCAPPOOSE      CLOUDY    52  46  80 CALM      29.92S
HILLSBORO      CLOUDY    50  45  83 CALM      29.92R
AURORA         PTSUNNY   54  44  69 N3        29.93S
MCMINNVILLE    CLOUDY    52  44  74 CALM      29.93S
SALEM          SUNNY     53  44  71 N3        29.90F
CORVALLIS      SUNNY     52  43  71 N3        29.91F
EUGENE         MOSUNNY   50  47  89 N7        29.90S
$$

ORZ021-028-251600-
SOUTHWEST OREGON


CITY           SKY/WX    TMP DP  RH WIND       PRES   REMARKS
NORTH BEND     SUNNY     54  46  76 N9        29.90F
BROOKINGS      SUNNY     57  44  62 CALM      29.76S
ROSEBURG       MOSUNNY   51  43  74 N7        29.88S
SEXTON SUMMIT  MOSUNNY   41  36  82 N7        29.81S
MEDFORD        SUNNY     50  41  71 CALM      29.84R
$$

ORZ014>016-041-251600-
COLUMBIA GORGE


CITY           SKY/WX    TMP DP  RH WIND       PRES   REMARKS
TROUTDALE      CLOUDY    52  46  80 CALM      29.92S
HOOD RIVER     SUNNY     52  43  71 SW5       29.87F
THE DALLES     SUNNY     55  44  66 VRB5      29.86S
$$

ORZ029>031-041-044-049-050-061>064-502-503-505>511-251600-
EASTERN OREGON


CITY           SKY/WX    TMP DP  RH WIND       PRES   REMARKS
REDMOND        SUNNY     48  33  56 CALM      29.85S
BEND           SUNNY     48  34  57 S5        29.80S
PRINEVILLE     SUNNY     45  36  70 MISG      29.86S
KLAMATH FALLS  SUNNY     45  35  68 CALM      29.82S
HERMISTON      CLOUDY    56  42  59 W9        29.83S
PENDLETON      CLOUDY    51  42  71 SE5       29.83R
JOHN DAY       SUNNY     47  37  68 CALM      29.84S
MEACHAM        MOSUNNY   48  32  53 VRB5      29.83R
LA GRANDE      MOSUNNY   52  36  54 N8        29.83R
BAKER CITY     SUNNY     48  36  63 W6        29.83R
BURNS          SUNNY     45  32  60 E3        29.82S
ROME             N/A     51  28  41 CALM      29.81S
ONTARIO        MOSUNNY   57  36  45 NW15      29.80S
$$




USA.gov is the U.S. government's official web portal to all federal, state and local government web resources and services.